Temp
67 66 65 64 64 64 65 64 63 63 64 65 65 64 64 64 63 63 63 62 62 61 61 61 61 61 61 60 59 59 59 58 58 57 56 57 57 57 57 56 56 56 56 55 55 55 55 55 55 55 55 54 54 54 54 55 54 54 53 53 53 52 52 51 51 51 51 51 51
66 65 64 62 62 63 64 64 63 63 64 65 64 64 64 63 63 62 62 62 62 61 61 61 61 60 60 59 59 58 58 58 57 57 57 57 57 57 56 56 56 56 55 55 55 55 55 55 54 54 54 54 54 54 54 54 54 54 53 52 52 52 51 51 51 51 51 51 51
66 66 65 65 65 65 65 64 64 64 64 64 64 64 63 63 62 62 62 62 62 61 61 61 60 59 59 59 58 58 58 57 57 57 57 57 56 56 56 56 56 55 55 55 55 54 54 54 54 53 53 54 54 53 53 54 54 53 52 52 52 51 51 50 50 50 50 49 49
66 66 66 66 65 65 65 65 64 64 64 64 64 63 63 62 62 62 62 62 61 61 60 60 59 59 58 58 58 58 57 56 56 56 56 56 56 56 56 55 55 55 55 55 54 54 54 54 54 54 54 54 53 53 53 53 53 52 52 52 51 51 50 50 50 49 49 48 48
65 65 65 65 65 64 64 64 64 64 63 64 63 63 63 62 62 62 62 61 60 60 59 59 59 58 58 58 57 57 57 56 55 55 56 56 56 56 55 55 55 55 55 55 54 54 53 54 54 54 54 53 53 53 53 53 52 52 51 51 51 50 50 49 49 49 49 49 49
65 65 64 64 64 64 64 64 63 63 63 63 63 62 62 62 62 61 61 60 60 59 58 57 57 57 57 58 57 57 57 56 56 56 56 55 55 55 55 55 55 55 54 54 54 53 53 53 53 53 53 53 53 53 52 52 51 51 50 50 50 50 50 49 49 49 49 48 47
65 65 64 64 64 64 63 63 63 63 63 63 62 61 61 61 60 60 60 60 60 59 58 56 57 57 57 57 57 57 56 56 56 56 56 55 55 55 55 55 55 54 54 54 54 53 53 53 53 52 52 51 52 52 52 51 50 49 49 48 49 49 49 48 48 48 47 47 46
66 65 65 65 64 64 63 63 63 63 63 62 61 60 60 59 59 59 59 59 59 58 58 57 57 57 57 57 57 56 56 56 56 56 55 55 55 55 55 54 54 54 54 54 53 53 53 53 52 52 51 51 51 51 51 50 49 48 47 47 48 48 48 47 47 47 46 46 45
65 65 65 64 64 64 63 63 63 63 62 62 61 60 59 59 59 59 59 59 58 58 58 58 57 57 57 57 56 56 56 56 55 55 55 55 54 54 54 54 54 54 54 53 53 53 52 52 52 51 51 50 50 50 49 49 48 47 46 47 47 47 47 46 47 47 46 46 44
65 64 64 64 63 63 63 63 63 62 62 61 61 60 58 56 57 58 59 59 58 58 58 58 58 57 57 56 56 56 56 55 55 55 55 55 54 54 54 54 54 53 53 53 53 52 52 52 51 50 50 50 49 49 48 48 47 46 46 46 46 46 46 46 47 47 46 45 44
65 64 64 64 63 63 63 63 62 62 61 61 61 60 59 57 58 58 59 58 58 58 58 58 57 57 57 56 56 56 56 55 55 55 55 55 54 54 54 54 53 53 53 53 52 52 51 51 50 50 49 49 49 48 47 47 47 46 46 46 46 46 46 46 46 46 46 45 45
64 64 64 64 63 63 63 63 62 62 62 61 61 61 61 60 60 59 59 59 58 58 58 58 57 57 56 56 56 56 55 56 55 55 55 55 55 54 54 54 53 53 53 52 52 51 51 50 49 49 48 48 48 48 47 47 46 46 46 46 46 45 45 45 45 46 45 45 44
64 64 64 63 63 63 63 62 62 62 62 61 61 61 61 61 60 60 59 59 59 59 59 58 57 57 57 56 56 56 56 56 56 55 55 55 54 54 54 53 53 53 52 52 51 51 50 50 49 48 48 48 47 47 47 47 46 46 45 45 45 45 44 44 45 45 45 45 43
64 64 63 63 63 62 62 62 62 62 62 61 61 61 61 61 60 59 59 59 58 58 58 58 57 57 57 56 56 56 56 56 56 55 55 55 54 54 53 53 53 52 52 51 51 50 50 49 49 48 47 47 47 47 47 47 46 46 45 45 44 44 44 44 44 44 44 43 43
63 63 63 63 62 62 62 62 62 62 62 61 61 61 61 61 60 59 58 58 58 58 58 58 57 57 56 56 56 56 56 56 55 55 55 54 54 54 53 53 52 52 51 51 50 50 49 49 48 48 47 47 46 47 47 46 46 46 45 44 44 44 44 44 44 44 43 42 42
63 63 63 62 62 62 61 62 62 62 62 61 61 61 61 60 60 59 58 57 58 58 58 57 57 57 57 56 56 55 55 55 55 55 54 54 54 53 53 52 52 52 51 51 50 50 49 49 48 48 47 47 47 47 47 47 46 46 45 45 45 45 44 44 44 44 43 42 42
63 63 62 62 62 61 61 61 61 61 61 61 61 61 61 60 60 59 57 57 57 57 57 57 57 57 57 56 55 55 55 55 55 55 54 54 53 53 52 52 52 51 51 51 50 50 49 49 48 48 47 47 47 47 47 47 46 46 46 45 45 45 44 44 44 43 43 42 42
63 63 63 62 62 61 61 61 61 61 61 61 61 61 60 60 59 58 57 57 57 57 57 57 57 57 56 56 56 55 55 55 54 54 54 54 53 53 52 52 51 51 51 51 50 50 49 49 48 48 47 47 47 47 47 47 46 46 45 45 45 44 44 43 43 43 42 42 41
63 63 63 62 62 62 61 61 61 61 61 61 60 60 60 60 59 58 58 57 57 56 56 56 56 56 56 56 55 55 54 54 54 54 54 53 53 53 52 52 52 51 51 51 50 50 49 48 48 47 47 47 47 47 46 46 46 45 45 44 44 44 44 44 43 43 43 42 42
63 63 63 62 62 62 61 61 61 61 61 60 60 60 60 59 59 58 58 58 57 56 56 55 55 55 55 55 55 54 54 54 54 54 53 53 53 52 52 52 52 51 51 51 50 49 49 48 47 47 46 46 46 46 46 45 45 45 44 44 44 44 44 44 44 43 43 43 42
63 63 63 63 62 62 62 61 61 61 60 60 60 59 59 59 59 58 58 57 57 56 56 55 55 55 55 55 55 54 54 54 54 53 53 53 52 52 52 52 52 51 51 51 50 49 48 47 46 46 45 45 45 45 45 45 45 44 44 44 44 44 44 44 44 44 43 43 43
63 63 63 63 62 62 61 61 61 60 60 60 60 59 59 59 59 58 58 57 56 56 55 55 55 55 55 55 54 54 54 53 53 53 53 52 52 52 52 51 51 51 51 50 49 47 46 45 45 45 44 44 44 44 44 44 44 44 44 44 44 44 44 44 44 44 44 44 43
63 63 63 62 62 61 60 61 60 60 60 59 59 59 59 59 59 58 58 57 56 55 55 55 55 55 55 55 54 54 53 53 53 53 53 53 52 52 52 51 51 51 50 49 47 46 44 44 43 43 44 44 44 44 43 43 43 43 43 44 44 44 44 44 44 44 44 44 44
62 62 62 62 62 61 61 60 60 60 59 59 59 59 59 59 59 58 57 57 56 55 55 55 55 54 54 54 54 54 53 53 52 52 53 52 52 52 51 51 51 50 49 47 43 41 41 41 41 42 43 43 43 43 43 43 43 43 43 43 43 43 43 43 44 44 44 44 43
62 62 61 61 61 61 60 60 59 59 59 59 59 59 59 59 58 58 57 56 56 55 55 55 55 54 54 53 53 53 52 52 52 52 52 51 51 51 51 50 50 50 48 43 38 36 36 37 38 40 41 42 42 42 42 42 42 42 42 42 42 42 42 42 43 43 43 43 43
62 61 61 61 61 60 60 60 59 59 59 59 59 59 59 58 58 58 57 56 56 55 55 55 54 53 52 53 52 52 52 51 51 51 50 50 50 50 50 50 50 49 46 40 36 35 35 35 35 36 38 40 41 41 41 41 42 42 42 42 42 41 41 41 42 43 43 43 43
61 61 60 60 60 60 60 59 59 59 59 59 59 58 58 58 58 57 57 56 56 55 55 54 54 52 51 52 52 51 51 51 51 50 50 49 49 49 49 49 49 48 44 37 35 35 35 35 35 35 36 38 39 39 40 41 41 42 42 42 42 42 42 41 42 42 42 42 42
60 60 60 60 59 59 59 59 59 59 58 58 58 58 58 58 58 57 56 56 56 55 55 54 53 53 52 52 52 51 51 51 51 50 50 49 49 48 49 49 49 46 41 35 35 35 35 35 35 35 35 35 37 38 39 40 41 41 42 42 43 43 43 42 42 42 42 41 42
60 59 59 59 59 58 58 58 58 58 58 58 58 58 58 57 57 56 56 56 55 55 54 54 53 53 52 52 51 51 51 51 50 50 50 49 48 48 49 49 49 45 39 34 35 35 35 35 35 34 34 34 36 38 39 40 41 42 42 43 43 43 43 43 42 42 42 41 41
59 59 59 58 58 58 58 58 58 58 58 58 58 57 57 56 56 56 55 55 55 54 54 54 53 52 51 51 51 50 50 50 50 50 50 48 48 48 48 48 49 45 39 33 35 35 34 34 34 34 34 34 35 37 39 40 41 42 43 43 43 43 43 43 43 42 42 41 41
59 59 58 58 57 57 57 57 57 57 57 57 57 57 56 56 55 55 55 55 55 55 54 54 53 52 51 51 50 50 50 50 50 50 49 48 47 47 48 49 49 44 38 33 34 34 34 34 34 34 34 33 34 36 38 40 41 42 43 43 43 43 43 43 42 42 42 41 41
58 58 58 57 57 57 57 57 57 57 56 56 56 56 55 55 55 55 55 55 55 55 54 54 53 52 52 51 51 51 50 50 50 49 49 48 48 48 48 49 49 44 37 33 34 34 34 34 34 34 33 33 34 36 38 40 41 42 43 44 43 43 43 43 42 42 42 41 40
58 57 57 57 56 56 56 56 56 56 55 55 55 55 54 54 55 55 55 55 55 55 54 54 53 53 52 52 51 50 50 49 49 48 48 48 48 48 48 48 50 43 36 33 34 34 34 33 33 33 33 32 34 36 39 41 42 43 44 44 44 44 43 43 43 42 41 41 40
57 57 56 56 56 56 56 56 55 55 55 54 54 54 54 54 54 54 54 54 54 54 54 54 54 53 53 53 52 50 49 48 48 48 48 48 48 48 48 48 50 42 34 34 34 34 33 33 33 33 33 32 35 37 40 42 43 43 44 44 44 44 43 43 42 42 41 41 40
57 56 56 56 55 55 55 55 55 55 54 54 54 54 54 54 54 54 54 54 54 54 54 54 54 54 53 53 52 51 49 47 48 47 47 47 47 47 48 48 49 41 33 34 34 33 33 33 33 33 33 33 36 39 41 43 43 44 44 43 43 43 43 42 42 42 41 41 41
57 56 55 55 55 55 55 55 55 54 54 53 53 53 54 54 54 55 54 54 54 54 54 54 54 53 53 52 51 50 49 49 47 46 46 46 46 47 47 48 49 41 34 34 33 33 33 33 33 32 33 34 38 40 42 43 43 43 43 43 43 43 42 42 42 41 41 41 40
57 56 55 54 55 55 55 54 54 53 53 53 53 53 54 54 55 55 55 54 55 55 54 54 54 53 52 51 50 50 50 49 47 46 45 45 46 46 47 47 48 42 35 33 33 33 33 33 32 32 33 36 38 40 41 42 42 42 42 42 42 42 42 42 41 41 41 41 40
57 56 55 54 54 55 54 54 53 53 52 53 53 54 54 55 55 55 55 54 55 55 54 54 53 52 52 51 50 50 49 49 47 46 45 46 46 46 46 46 47 43 37 33 33 33 33 32 32 32 33 36 38 40 41 41 41 41 41 41 42 42 42 41 41 41 41 40 38
56 56 55 55 54 54 54 54 53 53 53 53 54 54 55 55 55 55 55 54 55 55 54 53 53 53 52 51 50 49 48 48 47 46 46 47 46 45 45 45 46 43 38 33 33 32 32 32 32 32 33 35 37 39 40 40 40 40 41 41 41 41 41 41 41 41 41 40 38
56 56 55 55 54 54 54 54 53 53 53 54 54 54 55 55 55 55 55 55 55 54 53 53 53 52 51 49 49 48 47 47 47 47 47 47 46 44 42 43 44 43 40 34 33 32 32 32 32 32 33 35 37 38 39 40 39 39 40 40 40 40 40 40 41 41 41 40 39
56 55 55 54 54 54 54 54 54 54 54 54 54 54 54 55 55 55 56 55 55 54 53 52 52 52 50 48 48 47 47 46 47 48 48 46 45 43 41 42 43 43 42 37 34 32 32 32 32 32 33 34 36 38 38 39 39 39 39 39 39 39 39 39 40 40 40 40 40
MSLP
1023.16 1023.28 1023.36 1023.44 1023.48 1023.52 1023.60 1023.76 1023.84 1023.84 1023.84 1023.88 1023.92 1024.00 1024.08 1024.20 1024.24 1024.36 1024.48 1024.56 1024.68 1024.76 1024.80 1024.92 1025.00 1025.08 1025.20 1025.32 1025.40 1025.48 1025.52 1025.60 1025.64 1025.68 1025.72 1025.72 1025.76 1025.76 1025.76 1025.76 1025.80 1025.80 1025.80 1025.76 1025.76 1025.76 1025.64 1025.60 1025.48 1025.32 1025.20 1025.16 1025.08 1025.04 1024.96 1024.92 1024.88 1024.84 1024.84 1024.84 1024.80 1024.76 1024.72 1024.60 1024.52 1024.48 1024.36 1024.32 1024.24
1023.24 1023.40 1023.52 1023.60 1023.60 1023.60 1023.68 1023.76 1023.88 1023.96 1024.00 1024.04 1024.08 1024.20 1024.24 1024.32 1024.40 1024.48 1024.60 1024.68 1024.80 1024.92 1024.96 1025.04 1025.12 1025.24 1025.32 1025.44 1025.52 1025.60 1025.64 1025.72 1025.72 1025.68 1025.68 1025.72 1025.80 1025.88 1025.88 1025.84 1025.84 1025.84 1025.84 1025.80 1025.76 1025.76 1025.68 1025.64 1025.52 1025.36 1025.24 1025.12 1025.04 1025.00 1024.96 1024.96 1024.92 1024.92 1024.92 1024.92 1024.92 1024.92 1024.88 1024.76 1024.68 1024.60 1024.56 1024.48 1024.48
1023.28 1023.36 1023.44 1023.48 1023.48 1023.52 1023.60 1023.64 1023.76 1023.88 1024.00 1024.12 1024.24 1024.32 1024.44 1024.52 1024.60 1024.64 1024.76 1024.84 1024.92 1025.04 1025.08 1025.16 1025.28 1025.40 1025.48 1025.56 1025.64 1025.72 1025.76 1025.80 1025.76 1025.76 1025.76 1025.76 1025.80 1025.88 1025.88 1025.92 1025.88 1025.88 1025.88 1025.84 1025.76 1025.76 1025.76 1025.72 1025.56 1025.40 1025.28 1025.16 1025.08 1025.04 1025.04 1025.04 1025.04 1025.00 1025.00 1025.00 1025.04 1025.04 1025.00 1024.92 1024.84 1024.76 1024.72 1024.68 1024.64
1023.32 1023.36 1023.36 1023.44 1023.48 1023.48 1023.60 1023.64 1023.76 1023.88 1024.04 1024.20 1024.28 1024.40 1024.52 1024.64 1024.72 1024.76 1024.84 1024.92 1025.00 1025.16 1025.28 1025.36 1025.48 1025.56 1025.60 1025.64 1025.68 1025.76 1025.84 1025.92 1025.88 1025.84 1025.80 1025.84 1025.88 1025.88 1025.92 1025.92 1025.88 1025.88 1025.88 1025.88 1025.84 1025.84 1025.80 1025.76 1025.60 1025.44 1025.32 1025.20 1025.20 1025.20 1025.16 1025.16 1025.12 1025.12 1025.12 1025.12 1025.16 1025.16 1025.08 1025.04 1024.96 1024.88 1024.80 1024.76 1024.72
1023.40 1023.48 1023.56 1023.60 1023.64 1023.72 1023.76 1023.84 1023.88 1024.00 1024.12 1024.20 1024.32 1024.40 1024.56 1024.68 1024.76 1024.84 1024.92 1024.96 1025.08 1025.24 1025.44 1025.60 1025.60 1025.64 1025.68 1025.72 1025.72 1025.76 1025.84 1025.92 1025.92 1025.88 1025.84 1025.84 1025.88 1025.92 1025.96 1025.92 1025.88 1025.88 1025.88 1025.88 1025.84 1025.84 1025.84 1025.76 1025.60 1025.44 1025.32 1025.32 1025.32 1025.32 1025.32 1025.28 1025.28 1025.28 1025.28 1025.28 1025.28 1025.24 1025.20 1025.12 1025.04 1024.92 1024.84 1024.76 1024.72
1023.52 1023.64 1023.76 1023.80 1023.88 1023.88 1023.92 1024.04 1024.08 1024.16 1024.24 1024.28 1024.32 1024.40 1024.56 1024.72 1024.80 1024.92 1024.96 1025.04 1025.20 1025.36 1025.56 1025.72 1025.72 1025.72 1025.68 1025.68 1025.72 1025.76 1025.76 1025.80 1025.84 1025.88 1025.88 1025.88 1025.88 1025.92 1025.92 1025.92 1025.92 1025.92 1025.88 1025.88 1025.88 1025.88 1025.88 1025.76 1025.60 1025.48 1025.44 1025.48 1025.44 1025.44 1025.44 1025.48 1025.48 1025.48 1025.48 1025.40 1025.36 1025.32 1025.20 1025.12 1025.08 1025.00 1024.92 1024.84 1024.80
1023.48 1023.64 1023.76 1023.84 1023.88 1023.96 1024.04 1024.12 1024.20 1024.24 1024.32 1024.32 1024.40 1024.52 1024.68 1024.80 1024.92 1025.04 1025.08 1025.16 1025.24 1025.40 1025.60 1025.68 1025.68 1025.68 1025.64 1025.64 1025.68 1025.72 1025.76 1025.76 1025.80 1025.84 1025.88 1025.88 1025.92 1025.92 1025.92 1025.92 1025.92 1025.92 1025.88 1025.88 1025.88 1025.88 1025.88 1025.80 1025.68 1025.56 1025.56 1025.60 1025.60 1025.56 1025.60 1025.64 1025.68 1025.68 1025.60 1025.52 1025.48 1025.40 1025.32 1025.24 1025.24 1025.16 1025.04 1024.92 1024.84
1023.44 1023.60 1023.68 1023.80 1023.88 1024.00 1024.08 1024.12 1024.20 1024.20 1024.28 1024.32 1024.48 1024.60 1024.80 1024.96 1025.04 1025.12 1025.16 1025.20 1025.20 1025.32 1025.52 1025.60 1025.64 1025.68 1025.68 1025.68 1025.72 1025.76 1025.76 1025.76 1025.80 1025.84 1025.88 1025.88 1025.92 1025.92 1025.92 1025.92 1025.92 1025.92 1025.92 1025.92 1025.92 1025.92 1025.88 1025.88 1025.76 1025.72 1025.68 1025.76 1025.72 1025.72 1025.76 1025.76 1025.80 1025.76 1025.72 1025.60 1025.60 1025.52 1025.48 1025.40 1025.36 1025.24 1025.12 1024.96 1024.88
1023.40 1023.60 1023.76 1023.84 1023.92 1024.04 1024.08 1024.12 1024.20 1024.20 1024.24 1024.32 1024.48 1024.76 1024.96 1025.12 1025.16 1025.12 1025.12 1025.20 1025.28 1025.40 1025.48 1025.56 1025.60 1025.72 1025.76 1025.76 1025.76 1025.80 1025.80 1025.84 1025.84 1025.84 1025.88 1025.88 1025.92 1025.88 1025.88 1025.88 1025.92 1025.92 1025.92 1025.96 1026.00 1026.00 1025.96 1025.88 1025.88 1025.84 1025.84 1025.88 1025.84 1025.84 1025.88 1025.88 1025.88 1025.84 1025.76 1025.68 1025.60 1025.56 1025.52 1025.48 1025.36 1025.24 1025.12 1025.00 1024.92
1023.40 1023.60 1023.76 1023.84 1023.96 1024.04 1024.12 1024.20 1024.20 1024.24 1024.32 1024.40 1024.60 1024.80 1025.04 1025.16 1025.20 1025.20 1025.20 1025.28 1025.32 1025.40 1025.44 1025.48 1025.56 1025.64 1025.68 1025.72 1025.76 1025.76 1025.84 1025.88 1025.88 1025.84 1025.84 1025.88 1025.84 1025.84 1025.88 1025.88 1025.92 1025.92 1025.96 1026.00 1026.04 1026.04 1026.04 1026.00 1025.96 1025.96 1026.00 1026.00 1025.92 1025.92 1025.92 1025.92 1025.88 1025.84 1025.76 1025.72 1025.64 1025.56 1025.48 1025.40 1025.32 1025.20 1025.08 1025.00 1024.92
1023.40 1023.56 1023.68 1023.80 1023.96 1024.04 1024.12 1024.12 1024.20 1024.24 1024.32 1024.44 1024.60 1024.76 1024.92 1025.00 1025.04 1025.12 1025.20 1025.32 1025.32 1025.32 1025.32 1025.44 1025.52 1025.60 1025.60 1025.64 1025.68 1025.76 1025.84 1025.88 1025.88 1025.84 1025.76 1025.76 1025.80 1025.88 1025.88 1025.88 1025.96 1026.00 1026.04 1026.08 1026.12 1026.12 1026.08 1026.08 1026.04 1026.04 1026.04 1026.04 1026.04 1025.96 1025.92 1025.88 1025.88 1025.80 1025.76 1025.68 1025.60 1025.48 1025.44 1025.32 1025.32 1025.24 1025.12 1024.96 1024.88
1023.44 1023.56 1023.68 1023.80 1023.96 1024.04 1024.04 1024.04 1024.08 1024.16 1024.28 1024.36 1024.48 1024.60 1024.64 1024.72 1024.88 1025.04 1025.12 1025.20 1025.12 1025.12 1025.20 1025.36 1025.52 1025.60 1025.60 1025.60 1025.64 1025.72 1025.76 1025.80 1025.76 1025.76 1025.76 1025.76 1025.76 1025.84 1025.88 1025.92 1026.00 1026.04 1026.04 1026.12 1026.20 1026.20 1026.16 1026.16 1026.12 1026.08 1026.04 1026.04 1026.04 1026.00 1025.96 1025.88 1025.84 1025.76 1025.68 1025.60 1025.52 1025.48 1025.40 1025.32 1025.28 1025.20 1025.08 1024.96 1024.88
1023.48 1023.60 1023.68 1023.76 1023.88 1023.96 1023.96 1024.00 1024.04 1024.08 1024.20 1024.28 1024.36 1024.44 1024.48 1024.56 1024.72 1024.88 1025.00 1025.04 1025.04 1025.04 1025.08 1025.24 1025.48 1025.56 1025.56 1025.56 1025.60 1025.68 1025.72 1025.72 1025.72 1025.68 1025.68 1025.72 1025.76 1025.84 1025.88 1025.92 1026.00 1026.04 1026.12 1026.16 1026.20 1026.20 1026.20 1026.20 1026.16 1026.08 1026.04 1026.04 1026.04 1026.04 1025.96 1025.88 1025.80 1025.72 1025.60 1025.56 1025.48 1025.48 1025.36 1025.32 1025.24 1025.16 1025.04 1024.96 1024.92
1023.52 1023.60 1023.60 1023.76 1023.84 1023.88 1023.92 1023.96 1024.00 1024.04 1024.08 1024.16 1024.24 1024.32 1024.44 1024.52 1024.64 1024.80 1024.92 1025.00 1025.00 1025.04 1025.04 1025.12 1025.32 1025.48 1025.52 1025.52 1025.60 1025.64 1025.68 1025.64 1025.64 1025.60 1025.64 1025.68 1025.76 1025.80 1025.88 1025.92 1026.00 1026.08 1026.16 1026.20 1026.24 1026.28 1026.24 1026.20 1026.20 1026.16 1026.12 1026.08 1026.04 1026.00 1025.92 1025.84 1025.76 1025.68 1025.64 1025.60 1025.52 1025.48 1025.36 1025.32 1025.20 1025.12 1025.04 1025.00 1024.96
1023.48 1023.56 1023.64 1023.76 1023.80 1023.84 1023.88 1023.88 1023.92 1023.96 1024.00 1024.04 1024.16 1024.32 1024.44 1024.52 1024.60 1024.76 1024.92 1025.04 1025.08 1025.04 1025.04 1025.08 1025.16 1025.28 1025.44 1025.56 1025.64 1025.68 1025.64 1025.60 1025.60 1025.56 1025.60 1025.60 1025.68 1025.76 1025.84 1025.88 1026.00 1026.08 1026.16 1026.20 1026.20 1026.28 1026.28 1026.24 1026.20 1026.20 1026.16 1026.08 1026.00 1025.92 1025.84 1025.76 1025.72 1025.72 1025.68 1025.60 1025.52 1025.48 1025.36 1025.32 1025.20 1025.08 1025.04 1025.00 1024.92
1023.48 1023.52 1023.60 1023.72 1023.76 1023.76 1023.76 1023.80 1023.84 1023.88 1023.92 1024.00 1024.08 1024.24 1024.36 1024.48 1024.56 1024.72 1024.92 1025.00 1025.04 1025.04 1025.04 1025.04 1025.04 1025.08 1025.24 1025.44 1025.60 1025.60 1025.60 1025.56 1025.56 1025.52 1025.52 1025.56 1025.64 1025.76 1025.80 1025.88 1026.00 1026.08 1026.12 1026.16 1026.20 1026.20 1026.24 1026.28 1026.28 1026.24 1026.20 1026.04 1026.00 1025.88 1025.76 1025.76 1025.72 1025.68 1025.64 1025.60 1025.56 1025.48 1025.40 1025.32 1025.20 1025.16 1025.08 1025.04 1024.92
1023.36 1023.44 1023.48 1023.56 1023.60 1023.68 1023.72 1023.76 1023.80 1023.84 1023.88 1023.92 1024.04 1024.20 1024.28 1024.40 1024.48 1024.60 1024.76 1024.92 1024.96 1024.96 1024.96 1024.96 1025.00 1025.04 1025.04 1025.20 1025.36 1025.48 1025.48 1025.48 1025.48 1025.48 1025.48 1025.56 1025.64 1025.72 1025.80 1025.88 1026.00 1026.04 1026.08 1026.08 1026.08 1026.12 1026.16 1026.20 1026.24 1026.24 1026.20 1026.12 1025.96 1025.84 1025.76 1025.72 1025.72 1025.68 1025.60 1025.60 1025.56 1025.48 1025.44 1025.36 1025.28 1025.20 1025.16 1025.04 1024.92
1023.20 1023.28 1023.32 1023.44 1023.48 1023.56 1023.64 1023.76 1023.76 1023.84 1023.88 1023.96 1024.04 1024.12 1024.24 1024.36 1024.48 1024.56 1024.72 1024.84 1024.92 1024.92 1024.92 1024.92 1024.96 1025.00 1025.04 1025.08 1025.20 1025.32 1025.40 1025.44 1025.44 1025.48 1025.52 1025.60 1025.68 1025.76 1025.80 1025.88 1025.92 1026.00 1026.04 1026.04 1026.04 1026.08 1026.16 1026.20 1026.24 1026.24 1026.20 1026.12 1026.00 1025.88 1025.76 1025.76 1025.76 1025.72 1025.68 1025.64 1025.60 1025.48 1025.44 1025.36 1025.32 1025.24 1025.16 1025.04 1024.92
1023.04 1023.12 1023.20 1023.28 1023.36 1023.48 1023.60 1023.68 1023.72 1023.80 1023.88 1023.96 1024.04 1024.12 1024.20 1024.32 1024.40 1024.48 1024.60 1024.68 1024.76 1024.88 1024.92 1024.92 1024.92 1024.96 1025.00 1025.04 1025.12 1025.20 1025.32 1025.44 1025.44 1025.48 1025.56 1025.60 1025.72 1025.76 1025.76 1025.80 1025.88 1025.92 1025.92 1025.92 1026.00 1026.08 1026.20 1026.24 1026.28 1026.28 1026.20 1026.16 1026.04 1025.92 1025.84 1025.76 1025.76 1025.72 1025.68 1025.60 1025.56 1025.48 1025.36 1025.32 1025.28 1025.20 1025.12 1025.04 1024.92
1022.92 1022.96 1023.04 1023.16 1023.28 1023.36 1023.48 1023.56 1023.64 1023.76 1023.84 1023.92 1024.04 1024.08 1024.16 1024.20 1024.32 1024.44 1024.48 1024.52 1024.60 1024.76 1024.88 1024.92 1024.92 1024.92 1024.92 1025.00 1025.04 1025.16 1025.24 1025.32 1025.40 1025.44 1025.48 1025.60 1025.64 1025.68 1025.72 1025.76 1025.84 1025.88 1025.88 1025.88 1026.00 1026.12 1026.20 1026.32 1026.32 1026.32 1026.24 1026.20 1026.08 1026.00 1025.88 1025.76 1025.72 1025.68 1025.60 1025.56 1025.48 1025.40 1025.32 1025.28 1025.20 1025.12 1025.04 1024.96 1024.88
1022.80 1022.92 1023.00 1023.08 1023.20 1023.24 1023.32 1023.48 1023.60 1023.72 1023.76 1023.88 1023.92 1024.00 1024.04 1024.12 1024.20 1024.28 1024.36 1024.48 1024.56 1024.64 1024.76 1024.84 1024.88 1024.84 1024.84 1024.92 1024.96 1025.04 1025.16 1025.28 1025.32 1025.40 1025.48 1025.52 1025.60 1025.64 1025.68 1025.76 1025.80 1025.80 1025.80 1025.88 1026.04 1026.20 1026.32 1026.44 1026.44 1026.40 1026.32 1026.20 1026.12 1026.00 1025.88 1025.80 1025.72 1025.60 1025.56 1025.48 1025.40 1025.32 1025.28 1025.20 1025.16 1025.04 1024.96 1024.88 1024.76
1022.76 1022.88 1022.96 1023.04 1023.12 1023.20 1023.32 1023.44 1023.56 1023.68 1023.76 1023.80 1023.84 1023.88 1024.00 1024.04 1024.04 1024.16 1024.28 1024.44 1024.52 1024.60 1024.64 1024.72 1024.76 1024.76 1024.76 1024.84 1024.88 1024.96 1025.08 1025.20 1025.28 1025.32 1025.44 1025.48 1025.52 1025.60 1025.68 1025.76 1025.72 1025.72 1025.76 1025.88 1026.08 1026.32 1026.48 1026.56 1026.56 1026.48 1026.40 1026.32 1026.16 1026.04 1025.92 1025.84 1025.76 1025.60 1025.48 1025.40 1025.32 1025.28 1025.20 1025.16 1025.08 1025.00 1024.92 1024.76 1024.68
1022.76 1022.88 1022.92 1023.04 1023.12 1023.20 1023.32 1023.44 1023.52 1023.60 1023.68 1023.72 1023.76 1023.80 1023.84 1023.88 1023.88 1024.04 1024.20 1024.32 1024.44 1024.52 1024.60 1024.64 1024.68 1024.68 1024.72 1024.76 1024.80 1024.92 1025.00 1025.08 1025.20 1025.24 1025.32 1025.36 1025.44 1025.48 1025.60 1025.64 1025.64 1025.64 1025.72 1025.92 1026.24 1026.48 1026.60 1026.64 1026.60 1026.56 1026.44 1026.32 1026.20 1026.08 1025.96 1025.88 1025.76 1025.60 1025.48 1025.32 1025.28 1025.20 1025.16 1025.08 1025.00 1024.92 1024.80 1024.72 1024.60
1022.76 1022.88 1022.96 1023.08 1023.16 1023.20 1023.32 1023.40 1023.44 1023.48 1023.56 1023.60 1023.64 1023.64 1023.68 1023.76 1023.80 1023.88 1024.04 1024.20 1024.32 1024.40 1024.48 1024.56 1024.60 1024.60 1024.68 1024.76 1024.80 1024.92 1024.96 1025.00 1025.04 1025.08 1025.16 1025.20 1025.32 1025.44 1025.48 1025.56 1025.52 1025.56 1025.76 1026.12 1026.52 1026.76 1026.84 1026.84 1026.76 1026.64 1026.52 1026.40 1026.24 1026.12 1026.04 1025.92 1025.76 1025.60 1025.48 1025.36 1025.28 1025.20 1025.08 1025.04 1024.92 1024.80 1024.76 1024.64 1024.56
1022.76 1022.88 1022.96 1023.04 1023.16 1023.20 1023.24 1023.32 1023.32 1023.40 1023.44 1023.48 1023.52 1023.56 1023.60 1023.60 1023.72 1023.80 1023.92 1024.04 1024.16 1024.24 1024.32 1024.40 1024.48 1024.56 1024.64 1024.76 1024.80 1024.92 1024.96 1025.00 1025.00 1025.04 1025.04 1025.12 1025.24 1025.36 1025.48 1025.48 1025.48 1025.52 1025.80 1026.32 1026.80 1027.00 1027.04 1027.04 1027.00 1026.88 1026.68 1026.48 1026.32 1026.20 1026.08 1025.96 1025.80 1025.64 1025.52 1025.40 1025.28 1025.16 1025.04 1024.92 1024.80 1024.72 1024.64 1024.56 1024.52
1022.76 1022.84 1022.92 1023.00 1023.04 1023.12 1023.16 1023.20 1023.20 1023.28 1023.32 1023.36 1023.40 1023.48 1023.48 1023.52 1023.60 1023.68 1023.80 1023.88 1024.00 1024.12 1024.24 1024.32 1024.40 1024.48 1024.60 1024.68 1024.76 1024.84 1024.92 1024.96 1024.96 1025.00 1025.04 1025.08 1025.20 1025.32 1025.40 1025.44 1025.40 1025.48 1025.84 1026.44 1026.80 1026.96 1027.04 1027.08 1027.12 1027.04 1026.92 1026.68 1026.48 1026.32 1026.16 1026.00 1025.80 1025.64 1025.48 1025.32 1025.20 1025.08 1024.96 1024.84 1024.72 1024.60 1024.60 1024.56 1024.48
1022.76 1022.84 1022.92 1022.96 1023.00 1023.04 1023.08 1023.08 1023.16 1023.20 1023.20 1023.20 1023.28 1023.32 1023.36 1023.36 1023.48 1023.52 1023.64 1023.76 1023.84 1024.00 1024.12 1024.20 1024.32 1024.48 1024.60 1024.60 1024.68 1024.76 1024.76 1024.80 1024.84 1024.92 1025.00 1025.08 1025.20 1025.28 1025.32 1025.32 1025.32 1025.48 1025.88 1026.48 1026.76 1026.88 1026.96 1027.04 1027.08 1027.08 1027.04 1026.84 1026.64 1026.44 1026.20 1026.00 1025.76 1025.60 1025.44 1025.24 1025.08 1024.96 1024.84 1024.68 1024.60 1024.56 1024.52 1024.48 1024.48
1022.72 1022.80 1022.88 1022.92 1022.92 1022.96 1023.00 1023.04 1023.08 1023.08 1023.08 1023.12 1023.16 1023.20 1023.24 1023.28 1023.32 1023.44 1023.48 1023.60 1023.72 1023.84 1023.96 1024.04 1024.20 1024.32 1024.44 1024.48 1024.56 1024.60 1024.68 1024.68 1024.72 1024.76 1024.92 1025.04 1025.20 1025.28 1025.28 1025.28 1025.24 1025.52 1026.04 1026.48 1026.64 1026.76 1026.92 1026.96 1027.00 1027.04 1027.04 1026.92 1026.72 1026.52 1026.28 1026.04 1025.76 1025.52 1025.32 1025.08 1024.96 1024.80 1024.68 1024.60 1024.60 1024.52 1024.48 1024.48 1024.44
1022.68 1022.76 1022.80 1022.84 1022.92 1022.92 1022.96 1023.00 1023.04 1023.04 1023.04 1023.04 1023.08 1023.12 1023.20 1023.20 1023.28 1023.36 1023.44 1023.48 1023.60 1023.72 1023.76 1023.84 1024.00 1024.12 1024.24 1024.32 1024.44 1024.48 1024.56 1024.60 1024.64 1024.68 1024.76 1024.92 1025.08 1025.20 1025.24 1025.20 1025.20 1025.56 1026.04 1026.44 1026.56 1026.72 1026.84 1026.92 1026.92 1026.96 1027.00 1026.96 1026.76 1026.52 1026.28 1026.00 1025.76 1025.48 1025.24 1025.04 1024.88 1024.76 1024.64 1024.60 1024.52 1024.52 1024.48 1024.44 1024.40
1022.68 1022.76 1022.76 1022.80 1022.88 1022.92 1022.92 1022.96 1022.96 1022.96 1023.00 1023.04 1023.04 1023.04 1023.08 1023.16 1023.20 1023.24 1023.32 1023.36 1023.44 1023.48 1023.60 1023.64 1023.76 1023.92 1024.04 1024.20 1024.32 1024.44 1024.48 1024.52 1024.60 1024.64 1024.76 1024.88 1025.00 1025.12 1025.20 1025.16 1025.16 1025.52 1026.04 1026.36 1026.48 1026.60 1026.76 1026.84 1026.88 1026.92 1026.92 1026.92 1026.80 1026.60 1026.32 1026.00 1025.72 1025.44 1025.20 1024.96 1024.76 1024.68 1024.60 1024.56 1024.48 1024.48 1024.48 1024.44 1024.40
1022.68 1022.72 1022.76 1022.76 1022.80 1022.84 1022.88 1022.92 1022.92 1022.92 1022.96 1023.00 1023.04 1023.04 1023.04 1023.04 1023.08 1023.16 1023.20 1023.20 1023.20 1023.28 1023.40 1023.48 1023.60 1023.72 1023.88 1024.04 1024.20 1024.24 1024.32 1024.40 1024.52 1024.60 1024.72 1024.84 1025.00 1025.04 1025.08 1025.04 1025.04 1025.44 1026.00 1026.32 1026.40 1026.52 1026.64 1026.76 1026.80 1026.84 1026.84 1026.88 1026.76 1026.52 1026.24 1025.96 1025.68 1025.40 1025.12 1024.92 1024.76 1024.64 1024.56 1024.52 1024.48 1024.48 1024.44 1024.40 1024.40
1022.64 1022.68 1022.72 1022.76 1022.76 1022.76 1022.76 1022.84 1022.88 1022.88 1022.92 1022.92 1022.96 1022.96 1022.96 1023.00 1023.04 1023.04 1023.08 1023.08 1023.12 1023.16 1023.20 1023.24 1023.36 1023.48 1023.60 1023.76 1023.88 1024.04 1024.16 1024.24 1024.36 1024.52 1024.68 1024.80 1024.92 1025.00 1025.00 1024.96 1024.92 1025.32 1025.88 1026.20 1026.32 1026.44 1026.60 1026.64 1026.72 1026.76 1026.76 1026.76 1026.64 1026.48 1026.20 1025.92 1025.60 1025.28 1025.00 1024.80 1024.68 1024.60 1024.52 1024.48 1024.48 1024.44 1024.44 1024.44 1024.44
1022.60 1022.60 1022.64 1022.64 1022.64 1022.68 1022.72 1022.76 1022.80 1022.84 1022.88 1022.92 1022.92 1022.92 1022.92 1022.96 1023.00 1023.00 1023.04 1023.04 1023.04 1023.04 1023.04 1023.04 1023.08 1023.20 1023.32 1023.48 1023.64 1023.84 1024.00 1024.20 1024.32 1024.48 1024.60 1024.76 1024.88 1024.92 1024.92 1024.84 1024.72 1025.20 1025.88 1026.12 1026.20 1026.36 1026.48 1026.60 1026.60 1026.64 1026.68 1026.72 1026.60 1026.32 1026.00 1025.68 1025.32 1025.04 1024.80 1024.68 1024.56 1024.52 1024.48 1024.48 1024.44 1024.44 1024.44 1024.48 1024.48
1022.56 1022.60 1022.60 1022.60 1022.60 1022.60 1022.64 1022.72 1022.72 1022.76 1022.76 1022.76 1022.76 1022.80 1022.88 1022.88 1022.92 1022.92 1022.92 1022.96 1022.92 1022.92 1022.92 1022.92 1022.92 1023.00 1023.12 1023.28 1023.48 1023.72 1023.92 1024.08 1024.24 1024.40 1024.56 1024.72 1024.80 1024.88 1024.84 1024.76 1024.64 1025.20 1025.84 1025.96 1026.08 1026.24 1026.40 1026.48 1026.56 1026.60 1026.60 1026.60 1026.44 1026.12 1025.72 1025.36 1025.08 1024.88 1024.68 1024.60 1024.48 1024.48 1024.44 1024.44 1024.40 1024.40 1024.44 1024.48 1024.44
1022.48 1022.48 1022.52 1022.52 1022.56 1022.60 1022.60 1022.60 1022.60 1022.60 1022.60 1022.60 1022.60 1022.64 1022.68 1022.76 1022.72 1022.68 1022.72 1022.72 1022.72 1022.72 1022.72 1022.76 1022.76 1022.88 1023.04 1023.20 1023.44 1023.60 1023.80 1024.00 1024.20 1024.36 1024.56 1024.68 1024.80 1024.84 1024.80 1024.72 1024.64 1025.20 1025.76 1025.80 1026.00 1026.20 1026.32 1026.44 1026.48 1026.52 1026.56 1026.48 1026.20 1025.84 1025.48 1025.16 1024.92 1024.76 1024.60 1024.52 1024.48 1024.44 1024.40 1024.40 1024.36 1024.36 1024.40 1024.40 1024.40
1022.32 1022.36 1022.44 1022.48 1022.48 1022.48 1022.48 1022.48 1022.48 1022.48 1022.44 1022.44 1022.48 1022.48 1022.52 1022.52 1022.48 1022.48 1022.48 1022.48 1022.48 1022.48 1022.48 1022.52 1022.60 1022.76 1022.92 1023.16 1023.40 1023.56 1023.72 1023.88 1024.12 1024.36 1024.56 1024.72 1024.76 1024.80 1024.76 1024.64 1024.60 1025.08 1025.60 1025.72 1025.88 1026.08 1026.24 1026.36 1026.44 1026.48 1026.44 1026.28 1025.96 1025.60 1025.28 1025.04 1024.84 1024.68 1024.60 1024.52 1024.44 1024.36 1024.36 1024.36 1024.32 1024.32 1024.32 1024.32 1024.32
1022.24 1022.32 1022.32 1022.40 1022.40 1022.36 1022.36 1022.36 1022.32 1022.36 1022.36 1022.36 1022.36 1022.36 1022.32 1022.32 1022.28 1022.24 1022.20 1022.24 1022.20 1022.20 1022.20 1022.32 1022.48 1022.64 1022.84 1023.04 1023.28 1023.44 1023.60 1023.84 1024.08 1024.32 1024.52 1024.64 1024.72 1024.76 1024.72 1024.64 1024.60 1025.04 1025.56 1025.72 1025.88 1026.04 1026.20 1026.28 1026.32 1026.40 1026.32 1026.08 1025.80 1025.48 1025.20 1025.00 1024.84 1024.72 1024.60 1024.48 1024.36 1024.32 1024.32 1024.32 1024.32 1024.28 1024.24 1024.20 1024.24
1022.20 1022.28 1022.32 1022.32 1022.28 1022.24 1022.20 1022.24 1022.24 1022.24 1022.28 1022.24 1022.24 1022.20 1022.20 1022.16 1022.08 1022.04 1022.00 1022.04 1022.00 1022.00 1022.04 1022.20 1022.32 1022.52 1022.72 1022.92 1023.12 1023.32 1023.56 1023.80 1024.04 1024.20 1024.32 1024.44 1024.52 1024.60 1024.64 1024.68 1024.60 1024.92 1025.44 1025.76 1025.84 1025.96 1026.12 1026.20 1026.28 1026.32 1026.28 1026.04 1025.76 1025.52 1025.28 1025.04 1024.88 1024.72 1024.60 1024.48 1024.36 1024.32 1024.28 1024.28 1024.24 1024.20 1024.12 1024.12 1024.20
1022.20 1022.24 1022.20 1022.20 1022.16 1022.16 1022.12 1022.12 1022.12 1022.12 1022.12 1022.08 1022.04 1022.04 1022.00 1021.96 1021.88 1021.84 1021.80 1021.84 1021.88 1021.92 1022.00 1022.12 1022.28 1022.44 1022.64 1022.88 1023.08 1023.32 1023.60 1023.76 1023.92 1024.04 1024.12 1024.20 1024.28 1024.48 1024.60 1024.64 1024.60 1024.84 1025.28 1025.64 1025.80 1025.88 1026.04 1026.16 1026.20 1026.24 1026.20 1026.04 1025.80 1025.56 1025.32 1025.04 1024.88 1024.72 1024.60 1024.48 1024.36 1024.32 1024.28 1024.24 1024.20 1024.08 1024.04 1024.00 1024.04
1022.20 1022.20 1022.20 1022.12 1022.08 1022.08 1022.04 1022.04 1022.00 1021.96 1021.96 1021.92 1021.88 1021.88 1021.84 1021.76 1021.76 1021.68 1021.68 1021.72 1021.80 1021.88 1022.00 1022.12 1022.24 1022.40 1022.60 1022.92 1023.12 1023.32 1023.52 1023.64 1023.76 1023.84 1023.88 1024.00 1024.16 1024.40 1024.64 1024.72 1024.72 1024.84 1025.16 1025.56 1025.76 1025.84 1025.88 1026.04 1026.08 1026.16 1026.12 1025.92 1025.76 1025.56 1025.36 1025.12 1024.92 1024.72 1024.56 1024.48 1024.40 1024.32 1024.28 1024.20 1024.12 1024.04 1023.92 1023.88 1023.88
1022.16 1022.12 1022.08 1022.04 1022.04 1022.00 1021.92 1021.88 1021.84 1021.84 1021.84 1021.80 1021.76 1021.76 1021.72 1021.68 1021.60 1021.56 1021.56 1021.60 1021.68 1021.80 1021.96 1022.08 1022.24 1022.40 1022.60 1022.88 1023.08 1023.28 1023.40 1023.52 1023.60 1023.64 1023.76 1023.88 1024.08 1024.40 1024.64 1024.76 1024.80 1024.80 1024.92 1025.28 1025.56 1025.72 1025.80 1025.88 1026.00 1026.04 1026.04 1025.88 1025.76 1025.60 1025.40 1025.16 1024.92 1024.68 1024.56 1024.48 1024.48 1024.40 1024.32 1024.20 1024.04 1023.96 1023.88 1023.84 1023.76
Wind_Speed
6 6 5 4 4 4 4 4 3 3 2 3 3 3 3 3 3 3 3 3 3 3 3 3 4 4 5 6 5 5 5 5 5 4 4 5 5 6 6 6 6 6 7 7 7 7 7 8 7 6 5 4 5 5 6 6 7 7 8 8 8 9 10 11 11 11 12 12 10
7 6 5 4 4 4 4 4 3 3 2 3 3 3 3 3 3 3 3 3 3 3 3 3 4 5 5 5 5 4 4 5 5 4 4 5 5 6 6 6 6 6 6 7 7 7 7 8 7 6 5 4 5 6 6 6 7 8 9 10 8 8 8 9 10 11 11 11 10
6 6 5 5 4 4 4 3 3 4 3 3 3 3 3 3 3 3 3 3 3 4 4 4 4 4 4 4 3 3 4 4 4 5 4 5 5 5 6 6 6 6 7 7 7 7 7 8 7 6 5 5 6 6 7 7 8 8 8 9 8 7 7 7 9 9 9 8 9
5 5 4 4 4 4 4 3 4 4 3 3 3 3 3 2 2 2 2 3 3 4 4 4 3 3 3 2 2 3 3 3 4 4 4 4 5 5 6 6 6 7 7 7 7 8 8 8 7 6 5 6 7 7 7 7 8 8 7 7 7 7 7 7 7 7 7 7 8
5 5 4 4 4 4 4 3 4 3 3 2 2 2 3 2 2 2 2 2 3 3 4 4 3 2 1 1 2 2 2 2 2 3 4 4 5 5 6 6 7 7 7 7 8 8 8 9 6 5 5 6 6 6 7 9 9 9 8 7 7 7 7 7 7 7 7 7 8
5 5 4 4 4 4 3 3 3 3 2 2 2 3 3 3 3 3 3 3 3 3 3 2 2 1 1 1 1 1 2 2 2 3 4 4 5 5 6 6 7 7 7 7 8 8 9 8 6 5 5 6 6 7 8 10 9 9 8 8 7 7 7 7 7 7 8 9 10
6 5 5 4 4 4 3 3 3 3 2 2 3 3 4 4 4 4 3 3 2 2 1 0 1 1 1 1 2 2 3 3 3 3 4 4 4 5 5 6 6 7 7 8 8 8 8 8 6 6 5 6 6 7 9 10 9 9 9 8 7 7 7 8 8 8 9 11 12
5 5 5 4 4 4 3 3 3 2 2 2 3 3 4 4 3 3 3 2 2 1 1 0 1 1 2 2 2 2 3 3 3 3 3 3 4 5 5 6 6 7 8 8 8 9 8 7 6 6 6 6 6 7 9 10 10 10 9 9 8 7 7 7 8 8 10 12 13
5 5 4 4 3 3 3 2 2 2 1 2 3 3 3 3 2 2 3 3 2 1 1 0 0 1 2 2 2 2 2 3 4 3 3 3 4 4 5 5 6 7 7 8 8 9 9 7 6 6 6 6 7 7 9 10 10 10 9 8 8 8 8 8 9 10 11 11 12
4 4 4 4 3 3 2 2 2 1 1 2 3 3 2 0 1 2 3 3 2 2 1 1 1 1 2 2 2 2 2 3 3 3 3 3 3 4 5 6 7 7 7 8 8 8 8 7 7 7 7 7 8 9 9 9 10 10 9 7 8 9 10 10 11 11 11 11 12
4 4 3 3 3 2 2 2 2 2 1 2 2 2 2 3 1 1 2 2 2 2 2 1 2 2 3 2 2 2 2 2 3 3 3 3 3 4 5 6 7 7 8 8 8 7 7 7 7 8 9 9 9 9 9 9 9 10 9 8 9 10 11 11 11 11 11 11 12
3 3 3 3 2 2 2 2 2 1 1 1 2 2 2 2 1 0 2 3 3 3 2 1 2 3 3 2 2 2 2 3 3 3 3 3 4 4 5 6 7 7 8 8 7 7 7 7 8 9 10 10 8 8 8 9 10 10 10 10 11 11 11 12 12 11 10 11 12
3 3 3 3 2 2 2 2 2 1 2 2 2 1 1 1 1 1 2 4 4 4 2 2 2 3 3 3 2 2 3 3 4 4 3 3 4 4 5 6 7 7 8 7 7 7 7 8 9 10 10 10 8 8 8 10 10 10 10 11 11 11 12 12 12 12 11 12 12
3 3 3 2 2 2 2 2 2 2 2 2 2 2 2 2 1 2 3 4 5 4 4 2 2 3 3 2 3 3 4 4 4 4 4 3 3 4 5 6 6 7 7 7 7 8 8 9 9 10 10 10 9 9 9 9 10 10 10 11 11 12 12 12 12 12 12 12 12
3 3 3 2 2 2 2 3 2 2 2 2 2 2 2 2 2 2 2 3 4 4 4 3 3 3 3 2 3 4 4 4 4 4 4 4 4 4 5 6 6 7 7 7 7 7 8 9 10 10 10 10 10 10 10 9 10 10 10 11 11 12 12 12 12 12 12 12 12
4 4 3 3 3 3 3 3 2 2 3 3 2 2 2 2 2 2 2 3 4 4 4 4 4 3 3 3 3 4 4 5 4 4 4 4 4 5 5 6 6 7 7 7 7 7 8 9 9 10 10 11 11 10 10 10 10 10 10 11 11 12 12 12 13 13 12 13 13
4 4 4 4 4 4 3 3 3 3 3 3 3 3 3 3 2 2 2 3 3 4 4 4 4 4 4 3 4 4 4 4 4 4 4 4 5 5 5 5 6 7 7 8 7 8 8 9 9 10 10 11 11 11 10 10 10 10 11 11 11 12 12 12 12 12 12 12 13
5 5 5 4 4 4 4 4 4 4 4 4 4 3 3 3 3 3 3 3 4 4 5 5 5 5 5 4 4 3 4 4 4 4 4 4 5 5 5 6 6 6 7 7 8 8 9 10 10 11 10 11 11 10 10 10 10 10 11 11 11 11 11 11 12 11 11 12 12
5 5 4 4 4 4 4 4 4 4 4 4 4 4 4 4 3 3 4 4 4 4 5 5 5 5 5 5 4 4 4 4 4 4 4 5 5 5 6 6 6 7 7 7 7 8 9 10 11 11 11 11 10 10 10 10 10 10 10 11 11 11 11 11 11 11 11 12 12
4 4 4 4 4 4 5 5 5 5 5 4 5 5 5 4 4 4 4 4 4 4 5 6 6 6 6 5 5 5 4 4 4 4 4 5 5 5 6 6 7 7 7 7 7 8 9 10 11 11 11 11 11 11 11 10 10 10 10 10 10 11 11 11 11 11 11 12 12
4 4 4 4 4 5 5 4 4 5 5 5 6 6 6 5 5 5 5 5 4 4 5 6 6 7 6 6 6 5 5 4 4 4 5 5 5 5 6 6 7 7 7 6 6 8 9 10 10 10 10 10 10 10 10 10 10 11 11 10 10 11 11 11 11 11 12 11 12
4 4 4 4 4 4 4 4 5 5 5 6 6 6 6 6 6 5 5 4 4 5 6 6 7 7 7 6 6 5 5 4 4 4 5 5 5 5 5 6 7 7 6 5 6 7 8 9 10 10 10 10 10 10 10 10 11 11 11 11 11 11 11 11 11 11 11 11 11
4 4 4 4 4 5 5 5 5 6 6 6 7 7 7 7 6 5 5 5 5 5 6 6 7 7 7 6 6 5 5 5 5 5 5 5 5 5 5 6 7 6 5 4 5 6 7 8 9 9 9 9 10 10 10 11 11 11 11 11 12 12 11 11 11 11 11 11 11
4 4 4 4 5 5 5 6 6 6 7 7 7 7 7 7 6 6 5 5 6 6 6 6 6 6 6 6 6 6 6 6 7 6 6 5 5 5 6 6 6 5 3 4 5 5 5 6 7 8 8 8 9 9 10 10 11 11 11 11 11 11 11 11 11 11 11 11 11
4 4 4 5 5 6 6 6 6 7 7 7 7 7 7 7 7 6 6 6 6 7 7 7 7 6 6 6 6 6 7 7 7 7 6 6 5 5 5 6 6 3 2 5 6 5 3 4 5 6 7 8 8 9 9 10 11 11 11 11 11 11 11 11 11 11 11 11 11
4 4 5 5 6 6 7 7 7 7 7 7 8 8 8 8 7 7 7 7 7 7 7 7 7 6 6 6 7 7 7 7 7 7 6 6 5 5 6 6 5 2 3 7 6 4 2 2 4 5 6 7 8 8 9 9 10 11 11 10 10 10 10 10 10 11 11 11 11
4 5 5 6 6 7 7 7 7 7 8 8 8 8 8 8 7 7 7 8 7 7 7 7 7 6 6 7 8 8 8 8 7 7 7 6 6 6 6 7 5 1 4 8 6 4 1 2 3 5 6 7 8 8 8 9 10 10 10 10 10 9 10 10 10 10 10 11 11
5 5 6 6 7 7 7 7 7 8 8 8 8 8 8 8 8 8 8 8 8 7 7 7 7 6 6 6 8 8 9 9 8 7 6 6 6 6 7 7 4 2 7 9 7 4 1 2 3 4 5 6 7 8 8 9 9 9 9 9 9 9 9 9 9 9 10 11 11
5 6 6 7 7 7 7 7 8 8 8 8 8 8 8 8 8 8 8 8 8 8 7 6 6 6 6 7 8 8 9 9 8 7 6 6 6 6 7 7 4 3 10 11 7 4 2 1 3 4 5 6 6 7 7 8 8 8 8 8 8 8 9 9 9 9 10 10 11
6 6 7 7 7 7 7 8 8 8 8 8 8 8 9 9 9 9 9 9 9 9 8 7 6 6 7 8 8 8 8 8 8 7 6 6 6 6 7 7 4 4 10 11 7 5 2 1 3 4 5 7 7 7 7 8 8 8 8 8 8 9 10 9 10 10 10 10 10
6 6 7 7 7 8 8 8 8 8 8 8 8 9 9 9 9 9 9 9 9 9 8 8 8 9 9 9 9 8 8 8 7 7 6 6 6 6 7 9 4 4 10 11 8 5 3 2 3 4 6 7 7 7 8 8 9 9 9 8 9 10 10 9 9 10 10 11 10
6 7 7 8 8 8 8 8 8 8 8 8 9 9 9 9 9 9 9 9 9 9 9 10 10 10 10 10 9 9 9 8 7 7 6 6 6 7 8 9 4 5 10 10 8 5 3 2 3 5 6 7 8 8 9 10 10 9 9 9 10 10 10 9 9 9 10 11 10
7 7 8 8 8 8 8 8 8 8 8 8 8 9 9 9 9 9 9 9 9 10 11 11 10 10 10 9 9 9 8 8 8 7 6 6 7 7 8 10 3 7 12 10 8 6 4 2 3 5 7 8 8 9 10 10 9 9 9 9 9 10 10 10 9 9 10 10 9
7 7 8 8 8 8 8 8 8 8 8 8 8 8 9 9 9 9 9 9 9 10 10 10 10 9 8 8 8 8 7 7 7 7 6 6 7 7 8 9 2 8 13 11 9 6 4 2 3 5 7 8 8 9 10 10 9 9 9 9 9 9 9 9 10 9 9 10 8
7 7 8 8 8 8 8 8 8 8 8 8 8 9 9 9 9 10 10 9 9 10 10 10 9 8 7 7 7 8 7 6 6 6 5 6 7 8 8 10 2 8 14 11 9 6 4 3 4 5 7 8 8 8 9 10 9 9 9 10 10 10 10 9 9 9 9 9 8
7 7 7 8 8 8 9 9 9 9 9 9 9 9 9 9 10 10 9 9 10 10 10 9 8 8 7 7 7 7 7 6 6 5 5 6 7 8 9 10 3 7 13 11 9 6 4 3 4 5 7 7 7 8 8 8 8 9 9 10 10 10 9 9 9 8 8 8 8
7 7 7 8 9 9 9 9 9 9 9 9 9 9 10 10 10 10 9 9 10 10 10 9 8 8 7 7 7 7 6 6 6 6 7 7 8 8 8 10 4 5 11 10 8 6 4 3 4 5 6 7 7 7 8 8 7 8 8 9 9 9 9 8 8 8 8 8 7
7 7 8 8 9 9 9 9 9 9 9 10 10 10 10 10 10 9 9 8 9 9 9 8 8 8 8 7 7 6 6 6 6 7 8 9 8 7 7 9 5 3 9 9 8 6 5 4 4 5 6 6 7 7 7 7 7 7 8 8 8 8 8 7 7 7 7 8 5
7 8 8 9 9 9 9 9 9 9 10 10 10 10 10 10 9 9 8 8 8 8 8 8 8 8 7 7 6 6 6 7 8 9 9 9 7 6 6 8 5 2 6 9 8 7 6 5 5 5 6 6 7 7 6 7 7 8 8 7 7 8 8 7 7 6 7 8 5
7 8 8 9 9 9 9 10 10 10 10 10 10 10 10 10 9 9 8 7 7 7 7 8 8 7 6 6 6 6 7 8 9 9 9 8 6 4 4 6 6 3 5 9 9 8 7 6 5 5 6 6 6 6 6 6 7 7 7 7 7 7 7 7 7 6 6 7 6
8 8 8 8 9 9 9 10 10 10 10 9 10 10 9 9 9 9 8 7 7 6 6 6 7 7 6 6 6 7 8 9 10 9 8 7 5 4 4 5 6 6 5 9 10 9 8 7 6 5 5 5 5 5 6 6 7 7 7 7 7 7 7 7 7 6 6 7 7
Wind_Direction
91 89 88 85 87 88 88 85 78 69 64 62 60 58 53 43 42 40 36 31 21 15 11 10 9 10 12 13 14 15 17 19 19 18 18 19 18 11 4 3 2 0 358 355 352 350 346 342 336 332 328 326 325 325 327 329 332 333 333 333 332 330 327 325 323 323 323 323 323
102 104 108 111 114 113 112 114 112 103 89 75 64 57 51 41 34 30 29 29 23 15 9 7 12 11 11 14 18 20 19 15 7 6 10 18 17 10 3 0 358 357 355 352 350 349 345 340 334 329 326 324 327 329 332 334 335 334 333 334 333 330 327 324 324 324 324 323 325
112 118 123 127 126 124 122 121 116 108 100 91 83 71 59 47 32 25 22 23 21 17 12 7 13 12 11 13 23 27 24 14 2 360 4 12 11 7 1 356 353 352 352 351 350 349 345 339 332 327 326 330 334 335 335 335 336 335 334 335 333 330 326 323 322 321 321 320 321
102 102 101 100 99 98 97 95 96 95 94 94 92 83 71 54 36 22 16 16 21 22 18 9 11 14 12 3 22 32 31 17 359 356 359 4 3 1 358 352 351 351 351 350 350 349 345 338 330 327 330 336 336 336 336 337 337 337 335 335 332 328 324 320 318 316 314 314 314
96 89 85 83 86 86 85 83 87 91 96 100 96 86 73 55 32 14 8 10 26 30 27 11 4 4 6 352 19 29 31 19 353 350 354 359 360 358 356 352 352 351 350 351 350 348 344 337 330 330 336 340 339 339 338 339 338 338 336 334 330 325 320 315 314 314 314 315 314
108 105 102 101 100 98 94 89 89 93 96 96 82 70 56 37 19 9 4 6 29 42 42 21 350 330 327 344 8 7 1 357 350 351 354 356 357 355 354 352 352 352 351 352 350 348 344 338 331 334 340 342 338 338 339 341 340 337 335 331 327 324 320 320 321 321 319 317 315
123 124 124 123 120 114 109 110 112 115 113 103 82 64 47 29 15 8 2 1 22 49 65 53 309 310 320 340 355 354 349 347 348 351 353 354 353 353 352 351 352 352 353 353 350 348 345 339 335 337 343 343 338 339 341 342 340 336 332 328 326 325 324 325 325 321 317 315 315
126 127 127 125 123 122 123 128 130 132 127 114 91 70 50 29 13 1 355 354 5 18 30 301 329 330 330 337 346 345 343 339 340 344 348 353 349 349 349 351 352 353 354 354 351 348 345 339 338 341 343 341 337 338 339 340 336 332 328 325 324 324 325 325 321 317 314 314 316
127 126 126 125 122 124 128 132 127 121 112 101 84 71 55 30 1 349 350 359 359 349 313 239 313 311 306 305 315 325 330 333 333 336 340 346 344 346 349 352 353 354 355 355 352 348 344 341 342 343 343 340 336 336 336 336 332 330 327 322 322 323 322 319 317 315 314 315 316
132 135 138 134 130 133 141 146 137 128 113 98 92 92 94 109 325 342 354 1 338 302 272 253 285 285 280 277 287 304 319 325 324 323 325 332 341 348 352 355 355 354 355 357 353 348 344 342 343 342 340 335 333 333 333 332 329 327 325 321 320 319 319 317 317 317 316 315 315
135 142 146 138 138 149 169 182 169 160 145 123 127 145 165 185 198 346 351 334 293 271 259 267 293 291 284 277 283 294 304 307 307 308 314 327 343 350 354 356 355 355 355 357 353 348 345 343 341 339 337 335 333 332 331 329 326 324 321 319 319 319 319 319 320 318 316 315 316
139 146 149 141 147 172 199 210 194 179 167 163 179 195 201 197 169 357 325 305 290 278 263 246 272 279 279 274 279 284 289 290 295 301 310 326 341 349 353 355 355 355 355 356 353 348 344 343 340 338 336 336 334 330 327 325 322 321 321 321 321 320 320 320 319 318 317 318 319
149 157 159 155 169 198 221 229 223 217 211 207 222 247 274 301 349 337 320 313 309 304 290 251 248 255 263 269 279 287 290 291 294 299 308 323 337 345 350 352 354 354 354 354 352 348 344 341 339 338 336 335 331 327 324 322 321 321 322 322 322 321 320 319 319 318 318 320 320
169 176 176 171 190 216 234 238 237 239 240 240 242 271 301 315 326 330 325 323 319 312 300 273 241 238 248 267 285 293 294 292 294 297 305 318 333 341 346 349 351 352 352 352 350 347 344 342 341 338 335 331 327 323 321 320 322 323 323 323 322 321 320 319 319 319 320 321 320
187 190 191 193 209 226 241 245 247 252 256 258 260 280 296 302 312 322 324 319 312 305 295 277 252 235 230 244 270 282 287 287 289 295 302 315 329 338 342 345 347 348 348 347 347 346 345 343 342 338 334 328 324 321 320 321 323 323 323 321 321 320 320 320 320 321 322 321 318
201 202 203 208 220 233 245 251 256 264 271 275 279 282 284 290 299 308 308 302 297 291 283 273 263 247 230 218 239 260 273 280 285 292 302 315 328 334 338 340 342 343 342 342 343 344 346 346 343 339 334 327 323 320 321 322 323 322 322 321 321 320 320 321 321 322 321 320 317
211 213 214 217 226 236 248 256 265 274 281 287 289 286 284 287 294 294 290 282 283 283 281 277 273 265 253 231 231 245 262 275 284 294 306 319 325 328 331 334 337 337 336 336 340 344 347 348 346 340 334 327 323 321 322 323 322 322 322 321 320 320 320 320 320 320 319 317 316
219 222 224 227 234 242 251 259 266 274 281 286 287 287 286 285 289 289 282 271 271 275 279 281 277 272 267 259 249 252 263 277 287 298 309 318 319 320 322 326 329 330 330 332 340 345 348 348 346 341 335 328 324 322 322 322 321 320 320 319 318 317 317 317 317 317 316 316 316
228 231 233 235 241 247 253 256 261 266 271 277 279 279 279 276 277 277 274 267 259 262 269 276 274 270 264 261 257 257 264 274 284 294 303 310 310 311 313 318 322 323 325 331 342 348 350 349 346 340 334 328 325 322 321 319 318 317 316 315 315 315 315 316 316 315 315 315 315
241 245 247 249 251 253 256 257 259 262 266 270 271 272 272 270 266 265 268 270 264 259 260 267 270 267 262 256 253 252 255 263 275 286 295 301 302 305 309 314 317 319 323 332 345 351 352 349 344 339 334 329 324 321 318 317 316 315 314 313 312 313 314 315 315 315 315 314 315
252 258 261 263 263 264 265 266 265 265 265 266 267 268 269 267 263 262 264 273 274 267 260 258 261 261 259 255 252 251 252 257 270 281 288 292 295 301 307 312 313 314 320 335 351 357 355 350 343 337 332 327 322 320 318 317 316 314 313 311 312 313 315 315 315 315 315 315 316
259 267 272 274 276 276 275 272 268 264 262 263 265 267 267 265 262 261 262 267 269 266 261 256 255 255 255 254 254 255 257 259 266 272 276 280 286 295 303 306 305 308 318 342 2 3 357 348 340 334 330 325 321 319 318 317 315 313 312 312 313 314 315 315 315 315 315 316 318
265 274 282 287 287 283 276 269 263 260 259 260 263 264 265 263 262 261 259 257 258 258 257 255 253 253 253 254 256 258 260 261 261 261 262 266 276 287 296 298 299 306 323 6 18 11 358 345 336 331 328 324 321 320 318 316 314 312 312 313 314 314 314 314 314 315 316 318 320
268 278 286 290 286 280 273 266 262 260 259 260 263 265 267 268 266 264 260 256 255 254 253 251 249 250 251 253 254 257 260 263 263 262 261 262 271 282 290 294 297 308 345 48 45 29 6 342 332 328 325 323 321 320 318 315 313 312 312 313 313 312 312 312 313 315 317 321 323
268 277 281 281 279 276 272 268 264 262 262 263 266 269 272 273 270 267 262 259 256 253 252 250 247 245 245 246 248 251 255 259 263 265 267 267 270 275 281 286 291 306 46 81 77 64 33 345 328 323 322 320 320 318 315 312 311 310 310 309 309 309 309 310 312 316 320 323 325
271 276 278 278 276 274 272 270 268 267 267 267 269 270 272 273 270 267 263 260 256 253 251 250 248 245 243 242 243 244 245 248 252 256 260 264 266 270 274 278 282 291 94 99 99 91 60 341 320 314 314 314 316 315 312 309 308 307 306 305 305 305 307 309 313 318 323 325 327
273 277 278 278 277 275 274 274 273 272 272 271 271 271 272 273 271 268 264 261 258 254 250 248 247 245 243 243 244 244 244 244 244 244 246 251 258 264 270 275 277 265 106 110 112 109 83 316 308 306 307 310 311 311 309 306 306 305 304 303 303 304 307 310 316 321 324 325 326
275 278 280 280 279 280 280 280 279 278 277 276 275 276 276 276 274 272 269 267 265 261 254 245 241 239 239 241 242 243 244 246 244 240 235 235 245 255 264 272 275 118 112 119 122 123 120 299 300 303 304 307 306 304 302 301 301 302 302 303 304 306 310 314 319 322 324 325 326
276 279 281 281 282 283 283 283 283 283 283 282 282 281 279 278 276 274 271 269 267 264 259 251 240 236 238 242 244 245 246 246 246 241 234 229 238 250 261 270 266 130 119 125 128 131 142 273 291 296 299 301 301 300 300 299 300 301 302 304 307 310 314 318 320 321 323 324 326
276 278 279 281 281 281 281 281 284 285 287 286 284 282 279 277 275 273 271 268 264 261 258 255 247 241 239 241 245 247 247 246 244 240 235 232 241 252 261 266 258 140 124 128 132 137 153 246 282 291 295 297 296 295 295 297 299 300 301 302 306 310 313 316 318 320 322 324 326
275 277 278 279 279 279 279 281 284 286 286 284 282 280 279 278 278 277 275 272 268 262 257 253 248 243 239 237 241 245 248 248 242 236 232 231 240 250 258 265 251 142 128 132 135 142 158 228 274 286 292 296 293 292 292 294 295 296 297 300 305 309 312 314 317 320 322 325 326
273 275 277 278 278 279 281 284 286 286 285 283 282 281 281 281 281 281 280 279 276 271 263 253 247 242 239 237 240 245 250 251 244 236 230 231 241 250 259 266 250 140 131 138 140 146 162 216 266 282 289 294 291 289 288 287 289 290 293 297 303 308 311 314 316 319 322 324 325
272 274 276 277 279 282 284 286 286 284 283 281 280 279 280 281 282 282 282 282 279 275 270 263 255 249 245 243 245 248 251 252 244 236 230 233 246 255 262 269 252 132 132 144 144 148 162 208 261 279 288 293 289 285 284 284 285 288 293 300 305 309 312 315 317 319 321 321 321
267 269 272 275 279 283 285 286 283 280 277 274 273 273 274 276 278 279 278 275 273 271 270 268 264 260 255 252 251 250 247 242 236 232 232 239 252 259 265 271 257 131 134 148 144 146 160 208 258 279 288 291 286 284 284 286 289 293 299 305 308 311 314 316 317 318 317 316 316
263 266 271 275 279 282 283 283 281 279 277 275 274 274 274 275 276 276 274 272 269 267 265 264 262 261 258 256 254 250 244 232 225 225 233 247 258 263 267 273 256 133 133 145 141 144 161 210 257 279 288 288 284 283 287 292 296 301 305 308 310 312 313 316 316 315 314 311 312
268 271 274 277 278 278 279 280 282 282 281 280 279 278 277 276 276 275 274 272 269 266 263 260 256 254 253 252 250 245 238 225 217 218 229 243 254 262 269 276 260 134 130 139 138 145 165 210 256 278 286 286 284 288 293 299 302 305 307 308 310 312 315 317 316 313 311 308 310
274 275 276 276 276 277 278 280 281 281 281 279 279 278 278 278 277 276 274 272 271 269 267 263 258 254 250 247 242 237 230 220 217 220 226 233 241 251 264 274 265 136 128 138 141 150 170 210 250 274 284 286 290 295 300 303 304 305 307 308 310 314 317 317 314 311 308 307 310
278 278 277 275 277 278 280 280 279 278 278 277 277 278 278 279 279 278 278 277 277 277 275 271 265 259 253 247 240 232 225 222 223 225 226 227 231 240 254 269 267 150 130 143 149 157 174 207 241 266 281 289 295 299 302 304 304 305 307 309 312 316 318 316 312 309 307 309 313
282 281 280 280 281 282 283 281 279 277 276 276 277 278 279 279 280 281 283 284 285 285 284 279 272 265 257 248 238 230 226 228 229 229 228 227 227 232 246 262 267 194 140 150 158 166 180 205 231 256 273 283 291 297 300 302 303 304 307 310 313 316 317 315 311 308 308 311 312
281 280 280 281 282 282 282 280 278 276 276 276 278 279 280 280 281 283 285 285 285 284 282 278 274 268 258 244 235 230 228 231 231 229 227 227 219 214 225 247 261 233 166 157 164 171 183 201 223 246 265 278 289 296 299 300 301 303 307 313 317 318 317 314 311 309 309 311 310
277 277 278 279 280 280 279 279 278 277 276 277 278 278 279 280 281 281 282 281 280 278 274 271 269 262 252 237 231 229 229 231 232 229 225 225 207 189 192 222 245 243 210 165 167 173 184 198 215 234 254 276 290 295 296 297 299 304 310 318 322 321 317 313 310 308 309 312 312